Regional Weather Roundup
Issued by NWS

Home | Current Version | Previous Version | Graphics & Text | Print | Product List | Glossary On
Versions: 1 2 3 4 5 6 7 8 9 10 11 12 13 14 15 16 17 18 19 20 21 22 23 24 25 26 27 28 29 30 31 32 33 34 35 36 37 38 39 40 41 42 43 44 45 46 47 48 49 50
000
ASUS43 KTOP 222159
RWRKS

WEATHER ROUNDUP FOR KANSAS
NATIONAL WEATHER SERVICE GOODLAND KS
500 PM CDT SUN OCT 22 2017

NOTE:  "FAIR" INDICATES FEW OR NO CLOUDS BELOW 12,000 FEET WITH NO
SIGNIFICANT WEATHER AND/OR OBSTRUCTIONS TO VISIBILITY.

KSZ001>006-013>018-027>032-041>047-222300-
NORTHWEST KANSAS

CITY           SKY/WX    TMP DP  RH WIND       PRES   REMARKS
GOODLAND       CLOUDY    69  21  16 SW12      30.07R
HAYS           SUNNY     72  22  15 SW10      30.07F
HILL CITY      SUNNY     71  20  14 SW14      30.05F
RUSSELL        SUNNY     71  24  17 SW9       30.06F
$$

KSZ061>065-074>080-084>089-222300-
SOUTHWEST KANSAS

CITY           SKY/WX    TMP DP  RH WIND       PRES   REMARKS
DODGE CITY     SUNNY     72  16  12 W14       30.09F
ELKHART          N/A     71  27  19 SW8         N/A
GARDEN CITY    SUNNY     72  21  14 SW14      30.08F
GREAT BEND     SUNNY     69  27  20 W9        30.09F
LIBERAL        SUNNY     71  22  15 SW14G22   30.12F
$$

KSZ066>073-081>083-090>101-222300-
SOUTHEAST KANSAS

CITY           SKY/WX    TMP DP  RH WIND       PRES   REMARKS
CHANUTE        SUNNY     67  36  31 NW12      30.12R
COFFEYVILLE    SUNNY     69  35  28 NW14      30.11S
HUTCHINSON     SUNNY     71  24  17 NW7       30.09F
MEDICINE LODGE   N/A     73  21  14 W7        30.10F
NEWTON         SUNNY     69  26  20 W6        30.11F
PARSONS        LGT RAIN  68  33  27 N7        30.12S
WICHITA INTL   MOSUNNY   69  26  20 W3        30.10F
WICHITA JABRA  SUNNY     68  29  23 SW6       30.11S
WICHITA MCCONL SUNNY     69  24  18 SW3       30.11F
WINFIELD       SUNNY     68  39  34 NW5       30.13F
$$

KSZ007>012-019>026-033>040-048>060-102>105-222300-
NORTHEAST KANSAS

CITY           SKY/WX    TMP DP  RH WIND       PRES   REMARKS
CONCORDIA      SUNNY     69  24  18 W12       30.05F
EMPORIA        SUNNY     68  28  22 N6        30.11S
LAWRENCE       SUNNY     68  35  29 CALM      30.09S
MANHATTAN      SUNNY     70  28  21 W8        30.07F
OLATHE IND     SUNNY     64  40  41 N3        30.10F
OLATHE EXE     SUNNY     63  37  38 CALM      30.10S
SALINA         SUNNY     72  27  18 SW7       30.08F
TOPEKA BILLARD SUNNY     68  36  30 SW3       30.09S
TOPEKA FORBES  SUNNY     68  36  30 NW9       30.10S
$$



USA.gov is the U.S. government's official web portal to all federal, state and local government web resources and services.